| time (UTC) | temp C | wind direction | speed KPH | gust KPH | rain 1hr cm | rain 24hr cm | rain mn cm | humidity % | barometer mb |
| 20260503022503 | 9 | 89 | 0.0 | 3.2 | 0.00 | 0.00 | 0.00 | 68 | 1019.1 |
| 20260503022003 | 10 | 67 | 0.0 | 3.2 | 0.00 | 0.00 | 0.00 | 68 | 1019.1 |
| 20260503021503 | 10 | 118 | 1.6 | 4.8 | 0.00 | 0.00 | 0.00 | 68 | 1019.2 |
| 20260503021003 | 10 | 109 | 1.6 | 4.8 | 0.00 | 0.00 | 0.00 | 67 | 1019.1 |
| 20260503020503 | 10 | 85 | 1.6 | 3.2 | 0.00 | 0.00 | 0.00 | 67 | 1019.1 |
| 20260503020003 | 10 | 51 | 1.6 | 3.2 | 0.00 | 0.00 | 0.00 | 67 | 1019.1 |
| 20260503015503 | 10 | 57 | 1.6 | 3.2 | 0.00 | 0.00 | 0.00 | 66 | 1019.0 |
| 20260503015003 | 10 | 70 | 1.6 | 4.8 | 0.00 | 0.00 | 0.00 | 66 | 1019.1 |
| 20260503014503 | 10 | 31 | 3.2 | 4.8 | 0.00 | 0.00 | 0.00 | 66 | 1019.1 |
| 20260503014003 | 11 | 19 | 3.2 | 4.8 | 0.00 | 0.00 | 0.00 | 65 | 1019.2 |
| 20260503013503 | 11 | 26 | 3.2 | 4.8 | 0.00 | 0.00 | 0.00 | 65 | 1019.1 |
| 20260503013003 | 11 | 43 | 1.6 | 4.8 | 0.00 | 0.00 | 0.00 | 65 | 1019.0 |
| 20260503012503 | 11 | 69 | 0.0 | 3.2 | 0.00 | 0.00 | 0.00 | 65 | 1019.1 |
| 20260503012003 | 11 | 103 | 0.0 | 3.2 | 0.00 | 0.00 | 0.00 | 65 | 1019.1 |
| 20260503011503 | 11 | 52 | 1.6 | 3.2 | 0.00 | 0.00 | 0.00 | 64 | 1019.2 |
| 20260503011003 | 11 | 53 | 1.6 | 3.2 | 0.00 | 0.00 | 0.00 | 64 | 1019.1 |
| 20260503010503 | 11 | 273 | 0.0 | 3.2 | 0.00 | 0.00 | 0.00 | 64 | 1019.2 |
| 20260503010003 | 11 | 247 | 0.0 | 3.2 | 0.00 | 0.00 | 0.00 | 63 | 1019.2 |
| 20260503005503 | 12 | 172 | 0.0 | 3.2 | 0.00 | 0.00 | 0.00 | 63 | 1019.3 |
| 20260503005003 | 12 | 143 | 1.6 | 3.2 | 0.00 | 0.00 | 0.00 | 62 | 1019.3 |
| 20260503004503 | 12 | 127 | 1.6 | 3.2 | 0.00 | 0.00 | 0.00 | 62 | 1019.3 |
| 20260503004003 | 12 | 177 | 1.6 | 3.2 | 0.00 | 0.00 | 0.00 | 62 | 1019.4 |
| 20260503003503 | 12 | 188 | 1.6 | 3.2 | 0.00 | 0.00 | 0.00 | 62 | 1019.1 |
| 20260503003003 | 12 | 171 | 1.6 | 3.2 | 0.00 | 0.00 | 0.00 | 62 | 1019.3 |
| 20260503002503 | 12 | 200 | 3.2 | 6.4 | 0.00 | 0.00 | 0.00 | 62 | 1019.2 |
| 20260503002003 | 12 | 213 | 3.2 | 6.4 | 0.00 | 0.00 | 0.00 | 62 | 1019.5 |
| 20260503001503 | 12 | 210 | 3.2 | 3.2 | 0.00 | 0.00 | 0.00 | 62 | 1019.3 |
| 20260503001003 | 12 | 213 | 3.2 | 6.4 | 0.00 | 0.00 | 0.00 | 62 | 1019.3 |
| 20260503000503 | 12 | 218 | 3.2 | 8.0 | 0.00 | 0.00 | 0.00 | 62 | 1019.4 |
| 20260503000003 | 12 | 218 | 3.2 | 8.0 | 0.00 | 0.00 | 0.00 | 62 | 1019.6 |
| 20260502235503 | 12 | 206 | 3.2 | 6.4 | 0.00 | 0.00 | 0.00 | 62 | 1019.8 |
| 20260502235003 | 12 | 174 | 3.2 | 4.8 | 0.00 | 0.00 | 0.00 | 62 | 1019.7 |
| 20260502234503 | 12 | 161 | 3.2 | 4.8 | 0.00 | 0.00 | 0.00 | 61 | 1019.7 |
| 20260502234003 | 12 | 164 | 3.2 | 4.8 | 0.00 | 0.00 | 0.00 | 61 | 1019.9 |
| 20260502233503 | 12 | 168 | 1.6 | 3.2 | 0.00 | 0.00 | 0.00 | 61 | 1019.8 |
| 20260502233003 | 13 | 179 | 1.6 | 3.2 | 0.00 | 0.00 | 0.00 | 61 | 1019.8 |
| 20260502232503 | 13 | 194 | 3.2 | 4.8 | 0.00 | 0.00 | 0.00 | 60 | 1020.0 |
| 20260502232003 | 13 | 195 | 3.2 | 4.8 | 0.00 | 0.00 | 0.00 | 60 | 1019.9 |
| 20260502231503 | 13 | 200 | 3.2 | 6.4 | 0.00 | 0.00 | 0.00 | 60 | 1019.8 |
| 20260502231003 | 13 | 215 | 3.2 | 6.4 | 0.00 | 0.00 | 0.00 | 60 | 1019.9 |
| 20260502230503 | 13 | 223 | 4.8 | 6.4 | 0.00 | 0.00 | 0.00 | 60 | 1020.0 |
| 20260502230003 | 13 | 223 | 3.2 | 6.4 | 0.00 | 0.00 | 0.00 | 61 | 1019.9 |
| 20260502225503 | 13 | 226 | 1.6 | 4.8 | 0.00 | 0.00 | 0.00 | 61 | 1020.0 |
| 20260502225003 | 13 | 215 | 1.6 | 4.8 | 0.00 | 0.00 | 0.00 | 61 | 1020.0 |
| 20260502224503 | 13 | 189 | 1.6 | 3.2 | 0.00 | 0.00 | 0.00 | 60 | 1020.0 |
| 20260502224003 | 13 | 182 | 3.2 | 4.8 | 0.00 | 0.00 | 0.00 | 60 | 1019.7 |
| 20260502223503 | 13 | 199 | 3.2 | 4.8 | 0.00 | 0.00 | 0.00 | 60 | 1020.0 |
| 20260502223004 | 13 | 199 | 3.2 | 4.8 | 0.00 | 0.00 | 0.00 | 60 | 1020.1 |
| 20260502222503 | 13 | 196 | 3.2 | 4.8 | 0.00 | 0.00 | 0.00 | 59 | 1020.3 |
| 20260502222003 | 13 | 202 | 3.2 | 4.8 | 0.00 | 0.00 | 0.00 | 59 | 1020.2 |
| 20260502221503 | 13 | 200 | 3.2 | 4.8 | 0.00 | 0.00 | 0.00 | 59 | 1020.2 |
| 20260502221003 | 13 | 204 | 3.2 | 4.8 | 0.00 | 0.00 | 0.00 | 60 | 1020.3 |
| 20260502220503 | 13 | 196 | 3.2 | 4.8 | 0.00 | 0.00 | 0.00 | 59 | 1020.1 |
| 20260502220003 | 13 | 193 | 3.2 | 4.8 | 0.00 | 0.00 | 0.00 | 59 | 1020.1 |
| 20260502215503 | 13 | 196 | 1.6 | 4.8 | 0.00 | 0.00 | 0.00 | 59 | 1020.2 |
| 20260502215003 | 13 | 198 | 1.6 | 6.4 | 0.00 | 0.00 | 0.00 | 59 | 1020.2 |
| 20260502214503 | 13 | 213 | 3.2 | 6.4 | 0.00 | 0.00 | 0.00 | 59 | 1020.1 |
| 20260502214003 | 13 | 221 | 3.2 | 6.4 | 0.00 | 0.00 | 0.00 | 60 | 1020.2 |
| 20260502213503 | 13 | 225 | 3.2 | 4.8 | 0.00 | 0.00 | 0.00 | 60 | 1020.1 |
| 20260502213003 | 13 | 209 | 3.2 | 4.8 | 0.00 | 0.00 | 0.00 | 60 | 1020.3 |
| 20260502212503 | 13 | 170 | 3.2 | 4.8 | 0.00 | 0.00 | 0.00 | 59 | 1020.1 |
| 20260502212004 | 13 | 156 | 3.2 | 3.2 | 0.00 | 0.00 | 0.00 | 58 | 1020.2 |
| 20260502211503 | 13 | 159 | 3.2 | 4.8 | 0.00 | 0.00 | 0.00 | 58 | 1020.2 |
| 20260502211003 | 14 | 170 | 3.2 | 4.8 | 0.00 | 0.00 | 0.00 | 57 | 1020.2 |
| 20260502210503 | 14 | 191 | 3.2 | 4.8 | 0.00 | 0.00 | 0.00 | 57 | 1020.2 |
| 20260502210003 | 14 | 217 | 1.6 | 4.8 | 0.00 | 0.00 | 0.00 | 57 | 1020.4 |
| 20260502205503 | 15 | 215 | 1.6 | 4.8 | 0.00 | 0.00 | 0.00 | 57 | 1020.1 |
| 20260502205003 | 15 | 203 | 1.6 | 3.2 | 0.00 | 0.00 | 0.00 | 56 | 1020.2 |
| 20260502204503 | 15 | 222 | 1.6 | 4.8 | 0.00 | 0.00 | 0.00 | 56 | 1020.5 |
| 20260502204003 | 15 | 226 | 3.2 | 4.8 | 0.00 | 0.00 | 0.00 | 56 | 1020.4 |
| 20260502203503 | 15 | 221 | 3.2 | 4.8 | 0.00 | 0.00 | 0.00 | 55 | 1020.5 |
| 20260502203003 | 15 | 223 | 3.2 | 4.8 | 0.00 | 0.00 | 0.00 | 55 | 1020.2 |
| 20260502202503 | 15 | 222 | 1.6 | 3.2 | 0.00 | 0.00 | 0.00 | 54 | 1020.3 |
| 20260502202003 | 15 | 213 | 1.6 | 3.2 | 0.00 | 0.00 | 0.00 | 54 | 1020.6 |
| 20260502201503 | 15 | 211 | 1.6 | 4.8 | 0.00 | 0.00 | 0.00 | 53 | 1020.2 |
| 20260502201003 | 15 | 214 | 1.6 | 4.8 | 0.00 | 0.00 | 0.00 | 52 | 1020.3 |
| 20260502200503 | 16 | 224 | 1.6 | 3.2 | 0.00 | 0.00 | 0.00 | 52 | 1020.3 |
| 20260502200003 | 16 | 247 | 1.6 | 3.2 | 0.00 | 0.00 | 0.00 | 51 | 1020.6 |
| 20260502195503 | 16 | 273 | 1.6 | 3.2 | 0.00 | 0.00 | 0.00 | 51 | 1020.4 |
| 20260502195003 | 16 | 280 | 1.6 | 3.2 | 0.00 | 0.00 | 0.00 | 51 | 1020.2 |
| 20260502194503 | 16 | 243 | 1.6 | 4.8 | 0.00 | 0.00 | 0.00 | 50 | 1020.2 |
| 20260502194003 | 17 | 211 | 1.6 | 6.4 | 0.00 | 0.00 | 0.00 | 49 | 1020.2 |
| 20260502193503 | 17 | 176 | 3.2 | 6.4 | 0.00 | 0.00 | 0.00 | 49 | 1020.3 |
| 20260502193003 | 17 | 162 | 3.2 | 4.8 | 0.00 | 0.00 | 0.00 | 48 | 1020.2 |
| 20260502192503 | 17 | 170 | 3.2 | 4.8 | 0.00 | 0.00 | 0.00 | 47 | 1020.3 |
| 20260502192003 | 17 | 168 | 1.6 | 4.8 | 0.00 | 0.00 | 0.00 | 47 | 1020.1 |
| 20260502191503 | 17 | 160 | 1.6 | 4.8 | 0.00 | 0.00 | 0.00 | 47 | 1020.3 |
| 20260502191003 | 17 | 160 | 3.2 | 4.8 | 0.00 | 0.00 | 0.00 | 46 | 1020.0 |
| 20260502190503 | 18 | 162 | 3.2 | 6.4 | 0.00 | 0.00 | 0.00 | 46 | 1020.1 |
| 20260502190004 | 18 | 161 | 3.2 | 6.4 | 0.00 | 0.00 | 0.00 | 46 | 1020.0 |
| 20260502185503 | 18 | 158 | 3.2 | 4.8 | 0.00 | 0.00 | 0.00 | 45 | 1019.9 |
| 20260502185003 | 18 | 159 | 3.2 | 6.4 | 0.00 | 0.00 | 0.00 | 45 | 1020.1 |
| 20260502184503 | 18 | 161 | 3.2 | 6.4 | 0.00 | 0.00 | 0.00 | 44 | 1020.0 |
| 20260502184003 | 19 | 163 | 3.2 | 4.8 | 0.00 | 0.00 | 0.00 | 43 | 1020.2 |
| 20260502183503 | 20 | 170 | 1.6 | 4.8 | 0.00 | 0.00 | 0.00 | 43 | 1020.0 |
| 20260502183003 | 20 | 178 | 1.6 | 4.8 | 0.00 | 0.00 | 0.00 | 42 | 1020.0 |
| 20260502182503 | 20 | 187 | 3.2 | 6.4 | 0.00 | 0.00 | 0.00 | 41 | 1019.7 |
| 20260502182003 | 20 | 191 | 3.2 | 6.4 | 0.00 | 0.00 | 0.00 | 41 | 1019.9 |
| 20260502181503 | 20 | 191 | 4.8 | 6.4 | 0.00 | 0.00 | 0.00 | 41 | 1020.1 |
| 20260502181003 | 21 | 187 | 4.8 | 6.4 | 0.00 | 0.00 | 0.00 | 40 | 1019.9 |
| 20260502180503 | 21 | 182 | 4.8 | 6.4 | 0.00 | 0.00 | 0.00 | 40 | 1019.9 |
| 20260502170503 | 22 | 222 | 6.4 | 14.5 | 0.00 | 0.00 | 0.00 | 37 | 1019.9 |
| 20260502164003 | 23 | 197 | 4.8 | 16.1 | 0.00 | 0.00 | 0.00 | 35 | 1020.0 |
| 20260502163503 | 23 | 195 | 6.4 | 16.1 | 0.00 | 0.00 | 0.00 | 35 | 1020.0 |
| 20260502163003 | 23 | 190 | 6.4 | 14.5 | 0.00 | 0.00 | 0.00 | 35 | 1020.2 |
| 20260502162503 | 23 | 190 | 4.8 | 12.9 | 0.00 | 0.00 | 0.00 | 35 | 1020.1 |
| 20260502162003 | 23 | 207 | 6.4 | 14.5 | 0.00 | 0.00 | 0.00 | 35 | 1020.1 |
| 20260502161503 | 23 | 220 | 9.7 | 20.9 | 0.00 | 0.00 | 0.00 | 35 | 1020.1 |
| 20260502161003 | 23 | 215 | 8.0 | 20.9 | 0.00 | 0.00 | 0.00 | 35 | 1020.4 |
| 20260502160503 | 23 | 228 | 8.0 | 19.3 | 0.00 | 0.00 | 0.00 | 35 | 1020.4 |
| 20260502152003 | 23 | 219 | 8.0 | 20.9 | 0.00 | 0.00 | 0.00 | 33 | 1020.8 |
| 20260502151503 | 24 | 218 | 8.0 | 17.7 | 0.00 | 0.00 | 0.00 | 34 | 1020.6 |
| 20260502151003 | 24 | 222 | 8.0 | 19.3 | 0.00 | 0.00 | 0.00 | 32 | 1020.7 |
| 20260502150503 | 24 | 210 | 8.0 | 19.3 | 0.00 | 0.00 | 0.00 | 33 | 1021.0 |
| 20260502130503 | 23 | 225 | 11.3 | 24.1 | 0.00 | 0.00 | 0.00 | 33 | 1022.4 |
| 20260502123503 | 23 | 177 | 8.0 | 19.3 | 0.00 | 0.00 | 0.00 | 34 | 1022.9 |
| 20260502123003 | 23 | 184 | 8.0 | 19.3 | 0.00 | 0.00 | 0.00 | 33 | 1022.6 |
| 20260502122503 | 23 | 187 | 8.0 | 20.9 | 0.00 | 0.00 | 0.00 | 33 | 1022.9 |
| 20260502122003 | 23 | 181 | 6.4 | 20.9 | 0.00 | 0.00 | 0.00 | 33 | 1022.9 |
| 20260502121503 | 23 | 195 | 6.4 | 24.1 | 0.00 | 0.00 | 0.00 | 36 | 1023.1 |
| 20260502121003 | 23 | 206 | 9.7 | 24.1 | 0.00 | 0.00 | 0.00 | 33 | 1023.2 |
| 20260502120503 | 23 | 190 | 9.7 | 22.5 | 0.00 | 0.00 | 0.00 | 33 | 1023.1 |
| 20260502115503 | 23 | 188 | 8.0 | 20.9 | 0.00 | 0.00 | 0.00 | 34 | 1023.1 |
| 20260502115003 | 23 | 208 | 8.0 | 20.9 | 0.00 | 0.00 | 0.00 | 34 | 1023.2 |
| 20260502114503 | 23 | 234 | 11.3 | 29.0 | 0.00 | 0.00 | 0.00 | 34 | 1023.3 |
| 20260502114008 | 23 | 228 | 11.3 | 29.0 | 0.00 | 0.00 | 0.00 | 34 | 1023.3 |
| 20260502113503 | 23 | 172 | 9.7 | 19.3 | 0.00 | 0.00 | 0.00 | 34 | 1023.2 |
| 20260502113003 | 23 | 180 | 8.0 | 19.3 | 0.00 | 0.00 | 0.00 | 38 | 1023.5 |
| 20260502112503 | 23 | 225 | 6.4 | 20.9 | 0.00 | 0.00 | 0.00 | 36 | 1023.5 |
| 20260502112003 | 23 | 210 | 8.0 | 22.5 | 0.00 | 0.00 | 0.00 | 35 | 1023.8 |
| 20260502111503 | 23 | 199 | 9.7 | 22.5 | 0.00 | 0.00 | 0.00 | 33 | 1023.6 |
| 20260502111003 | 23 | 213 | 9.7 | 27.4 | 0.00 | 0.00 | 0.00 | 36 | 1023.7 |
| 20260502110503 | 23 | 224 | 9.7 | 27.4 | 0.00 | 0.00 | 0.00 | 34 | 1023.9 |
| 20260502110003 | 23 | 198 | 8.0 | 19.3 | 0.00 | 0.00 | 0.00 | 35 | 1023.7 |
| 20260502105503 | 23 | 176 | 8.0 | 19.3 | 0.00 | 0.00 | 0.00 | 35 | 1024.0 |
| 20260502105003 | 22 | 202 | 8.0 | 27.4 | 0.00 | 0.00 | 0.00 | 36 | 1024.1 |
| 20260502104503 | 23 | 227 | 8.0 | 27.4 | 0.00 | 0.00 | 0.00 | 33 | 1024.0 |
| 20260502103503 | 23 | 217 | 6.4 | 22.5 | 0.00 | 0.00 | 0.00 | 34 | 1024.2 |
| 20260502103003 | 22 | 216 | 6.4 | 20.9 | 0.00 | 0.00 | 0.00 | 35 | 1024.2 |
| 20260502102503 | 22 | 218 | 9.7 | 24.1 | 0.00 | 0.00 | 0.00 | 35 | 1024.5 |
| 20260502102003 | 22 | 215 | 8.0 | 24.1 | 0.00 | 0.00 | 0.00 | 33 | 1024.5 |
| 20260502101504 | 22 | 221 | 6.4 | 11.3 | 0.00 | 0.00 | 0.00 | 34 | 1024.3 |
| 20260502101003 | 22 | 226 | 8.0 | 25.7 | 0.00 | 0.00 | 0.00 | 35 | 1024.6 |
| 20260502100503 | 22 | 233 | 8.0 | 25.7 | 0.00 | 0.00 | 0.00 | 34 | 1024.5 |
| 20260502091503 | 21 | 253 | 3.2 | 8.0 | 0.00 | 0.00 | 0.00 | 42 | 1024.9 |
| 20260502091003 | 21 | 316 | 1.6 | 8.0 | 0.00 | 0.00 | 0.00 | 42 | 1025.1 |
| 20260502090503 | 21 | 275 | 1.6 | 8.0 | 0.00 | 0.00 | 0.00 | 42 | 1025.0 |
| 20260502071503 | 16 | 6 | 6.4 | 12.9 | 0.00 | 0.00 | 0.00 | 50 | 1025.4 |
| 20260502071003 | 16 | 7 | 6.4 | 11.3 | 0.00 | 0.00 | 0.00 | 51 | 1025.5 |
| 20260502070503 | 16 | 12 | 6.4 | 12.9 | 0.00 | 0.00 | 0.00 | 52 | 1025.7 |
| 20260502070003 | 16 | 11 | 8.0 | 12.9 | 0.00 | 0.00 | 0.00 | 53 | 1025.7 |
| 20260502065503 | 15 | 3 | 6.4 | 12.9 | 0.00 | 0.00 | 0.00 | 54 | 1025.7 |
| 20260502065003 | 15 | 2 | 6.4 | 9.7 | 0.00 | 0.00 | 0.00 | 55 | 1025.6 |
| 20260502064503 | 15 | 4 | 6.4 | 11.3 | 0.00 | 0.00 | 0.00 | 55 | 1025.5 |
| 20260502064003 | 15 | 6 | 6.4 | 11.3 | 0.00 | 0.00 | 0.00 | 55 | 1025.4 |
| 20260502063503 | 14 | 9 | 4.8 | 9.7 | 0.00 | 0.00 | 0.00 | 57 | 1025.7 |
| 20260502063003 | 13 | 8 | 4.8 | 9.7 | 0.00 | 0.00 | 0.00 | 59 | 1025.8 |
| 20260502062503 | 13 | 8 | 4.8 | 9.7 | 0.00 | 0.00 | 0.00 | 59 | 1025.7 |
| 20260502062003 | 13 | 5 | 4.8 | 9.7 | 0.00 | 0.00 | 0.00 | 60 | 1025.8 |
| 20260502061503 | 13 | 1 | 4.8 | 9.7 | 0.00 | 0.00 | 0.00 | 60 | 1025.7 |
| 20260502061003 | 12 | 359 | 6.4 | 9.7 | 0.00 | 0.00 | 0.00 | 61 | 1025.9 |
| 20260502060503 | 12 | 357 | 6.4 | 9.7 | 0.00 | 0.00 | 0.00 | 62 | 1025.8 |
| 20260502060003 | 12 | 353 | 4.8 | 9.7 | 0.00 | 0.00 | 0.00 | 63 | 1025.5 |
| 20260502055503 | 11 | 356 | 4.8 | 9.7 | 0.00 | 0.00 | 0.00 | 64 | 1025.7 |
| 20260502055003 | 11 | 1 | 4.8 | 8.0 | 0.00 | 0.00 | 0.00 | 65 | 1025.9 |
| 20260502054503 | 11 | 2 | 4.8 | 8.0 | 0.00 | 0.00 | 0.00 | 66 | 1025.7 |
| 20260502054003 | 10 | 3 | 4.8 | 6.4 | 0.00 | 0.00 | 0.00 | 66 | 1025.7 |
| 20260502053503 | 10 | 8 | 4.8 | 6.4 | 0.00 | 0.00 | 0.00 | 67 | 1025.7 |
| 20260502053003 | 9 | 11 | 3.2 | 6.4 | 0.00 | 0.00 | 0.00 | 68 | 1026.0 |
| 20260502052503 | 9 | 360 | 1.6 | 3.2 | 0.00 | 0.00 | 0.00 | 69 | 1026.1 |
| 20260502052003 | 8 | 5 | 1.6 | 3.2 | 0.00 | 0.00 | 0.00 | 70 | 1025.9 |
| 20260502051503 | 8 | 350 | 1.6 | 4.8 | 0.00 | 0.00 | 0.00 | 70 | 1025.7 |
| 20260502051003 | 8 | 297 | 1.6 | 4.8 | 0.00 | 0.00 | 0.00 | 70 | 1025.7 |
| 20260502050503 | 8 | 289 | 3.2 | 4.8 | 0.00 | 0.00 | 0.00 | 70 | 1025.5 |
| 20260502050003 | 7 | 283 | 3.2 | 4.8 | 0.00 | 0.00 | 0.00 | 71 | 1025.7 |
| 20260502045503 | 7 | 264 | 3.2 | 6.4 | 0.00 | 0.00 | 0.00 | 70 | 1025.8 |
| 20260502045003 | 7 | 254 | 3.2 | 6.4 | 0.00 | 0.00 | 0.00 | 70 | 1025.8 |
| 20260502044504 | 7 | 249 | 3.2 | 6.4 | 0.00 | 0.00 | 0.00 | 70 | 1025.5 |
| 20260502044003 | 7 | 250 | 3.2 | 6.4 | 0.00 | 0.00 | 0.00 | 70 | 1025.5 |
| 20260502043503 | 7 | 256 | 3.2 | 4.8 | 0.00 | 0.00 | 0.00 | 70 | 1025.7 |
| 20260502043003 | 7 | 268 | 1.6 | 4.8 | 0.00 | 0.00 | 0.00 | 70 | 1025.7 |
| 20260502042503 | 7 | 307 | 0.0 | 3.2 | 0.00 | 0.00 | 0.00 | 70 | 1025.7 |
| 20260502042003 | 7 | 288 | 1.6 | 6.4 | 0.00 | 0.00 | 0.00 | 70 | 1025.5 |
| 20260502041503 | 7 | 276 | 3.2 | 6.4 | 0.00 | 0.00 | 0.00 | 70 | 1025.8 |
| 20260502041003 | 7 | 285 | 3.2 | 6.4 | 0.00 | 0.00 | 0.00 | 70 | 1025.7 |
| 20260502040503 | 7 | 288 | 3.2 | 4.8 | 0.00 | 0.00 | 0.00 | 70 | 1025.6 |
| 20260502040003 | 7 | 282 | 3.2 | 6.4 | 0.00 | 0.00 | 0.00 | 69 | 1025.5 |
| 20260502035503 | 7 | 289 | 3.2 | 6.4 | 0.00 | 0.00 | 0.00 | 69 | 1025.6 |
| 20260502035003 | 7 | 301 | 3.2 | 4.8 | 0.00 | 0.00 | 0.00 | 69 | 1025.7 |
| 20260502034503 | 7 | 266 | 3.2 | 6.4 | 0.00 | 0.00 | 0.00 | 69 | 1025.8 |
| 20260502034003 | 7 | 238 | 4.8 | 8.0 | 0.00 | 0.00 | 0.00 | 69 | 1025.7 |
| 20260502033503 | 7 | 225 | 4.8 | 9.7 | 0.00 | 0.00 | 0.00 | 69 | 1025.6 |
| 20260502033003 | 7 | 201 | 3.2 | 9.7 | 0.00 | 0.00 | 0.00 | 69 | 1025.8 |
| 20260502032503 | 7 | 123 | 1.6 | 4.8 | 0.00 | 0.00 | 0.00 | 68 | 1025.9 |
| 20260502032003 | 7 | 68 | 1.6 | 4.8 | 0.00 | 0.00 | 0.00 | 68 | 1025.7 |
| 20260502031503 | 7 | 39 | 1.6 | 4.8 | 0.00 | 0.00 | 0.00 | 68 | 1025.6 |
| 20260502031003 | 7 | 18 | 0.0 | 3.2 | 0.00 | 0.00 | 0.00 | 68 | 1025.6 |
| 20260502030503 | 7 | 270 | 0.0 | 3.2 | 0.00 | 0.00 | 0.00 | 68 | 1025.5 |
| 20260502030003 | 7 | 239 | 1.6 | 4.8 | 0.00 | 0.00 | 0.00 | 68 | 1025.6 |
| 20260502025503 | 7 | 226 | 1.6 | 4.8 | 0.00 | 0.00 | 0.00 | 68 | 1025.7 |
| 20260502025003 | 7 | 213 | 1.6 | 4.8 | 0.00 | 0.00 | 0.00 | 68 | 1025.8 |
| 20260502024503 | 7 | 188 | 1.6 | 4.8 | 0.00 | 0.00 | 0.00 | 68 | 1025.9 |
| 20260502024003 | 7 | 165 | 0.0 | 3.2 | 0.00 | 0.00 | 0.00 | 67 | 1025.8 |
| 20260502023503 | 7 | 173 | 1.6 | 3.2 | 0.00 | 0.00 | 0.00 | 67 | 1025.9 |
| 20260502023003 | 7 | 192 | 1.6 | 3.2 | 0.00 | 0.00 | 0.00 | 67 | 1025.9 |